Terminal Aerodrome Forecast
Issued by NWS

Home | Current Version | Previous Version | Text Only | Print | Product List | Glossary On
Versions: 1 2 3 4 5 6 7 8 9 10 11 12 13 14 15 16 17 18 19 20 21 22 23 24 25
891
FTUS43 KGRR 302057 AAB
TAFAZO
TAF AMD
KAZO 302057Z 3021/3118 04006KT P6SM BKN035
     FM310300 05004KT 5SM BR BKN015
     FM310900 33002KT 2SM BR OVC015
     FM311000 00000KT 1 1/2SM BR OVC003
     FM311500 04004KT P6SM BKN015=

USA.gov is the U.S. government's official web portal to all federal, state and local government web resources and services.